close



Agen Poker

Jackpot

Texas Poker Multi Jackpot System

Kini Telah hadir Jackpot SUPER ROYAL FLUSH

Kini Telah hadir Jackpot 2000 (khusus table VIP keatas).

Ikutilah global jackpot yang tersedia di system kami, dengan system jackpot terbaru dan pertama di indonesia, anda dapat membeli jackpot dengan harga 100 rupiah saja dan menangkan hadiahnya hingga puluhan juta rupiah.

Jackpot bukanlah suatu keharusan untuk dibeli, namun kami memberikan suatu fitur tambahan untuk member tercinta dari www.asiapokerku.info.

Terdapat tiga pilihan harga jackpot yang bisa anda beli yaitu :100,500,1000 dan 2000(khusus table VIP Keatas) rupiah.

Hadiah dari Multi jackpot system www.asiapokerku.info

  1. full house x 10 harga jackpot yang anda beli.
      (contoh:anda membeli 1000 maka:1000 X10 = 10.000)
  2. four of kind x 250 harga jackpot yang anda beli
      (contoh:anda membeli 1000 maka:1000 X250 = 250.000)
  3. Straight flush x 1200
      (contoh:anda membeli 1000 maka:1000 X1200 = 1.200.000)
  4. Royal flush x 10000 harga jackpot yang anda beli
      (contoh:anda membeli 1000 maka:1000 X10000 = 10.000.000)
  5. SUPER ROYAL FLUSH x 30000 harga jackpot yang anda beli
      (contoh:anda membeli 1000 maka:1000 X30000 = 30.000.000)

Kondisi kartu

  1. full house adalah kondisi kartu dimana kartu anda dan kartu tengah dengan total 7 kartu bisa mendapatkan nilai 5 kartu dengan kombinasi 1 tris(three of kind) dan 1 pair, contoh 3 kartu 10 dan 2 kartu 5
  2. Four of kind adalah kondisi kartu dimana kartu anda dan kartu tengah dengan total 7 kartu bisa mendapatkan nilai 5 kartu dengan kombinasi 4 kartu yang sama jumlah dan 1 kartu apapun juga contoh anda mendapatkan 4 buah kartu angka 3 dan 1 kartu apapun.
  3. Staright flush adalah kondisi kartu dimana kartu anda dan kartu tengah dengan total 7 kartu bisa mendapatkan nilai 5 kartu dengan kombinasi seri / staright dengan kembang yang sama contoh : urutan kartu dari angka 5, 6, 7, 8 , 9 10 dengan kembang yg sama misalnya as hati
  4. Royal flush adalah kondisi kartu dimana kartu anda dan kartu tengah dengan total 7 kartu bisa mendapatkan nilai 5 kartu dengan kombinasi seri / staright dengan kembang yang sama tetapi kartu tersebut haruslah dimulai dari 10. contoh 10, Queen, Jack, King dan aces dengan kembang yang sama
  5. Super Royal flush adalah kondisi kartu dimana Kedua kartu anda digabung dengan 3 kartu pertama meja haruslah royal flush. contoh kartu anda 10,Queen kembang sama dan 3 kartu pertama meja adalah Jack, King dan aces dengan kembang yang sama

Demikian adalah penjelasan dari Multi Jackpot www.asiapokerku.info terima kasih dan selamat bermain salam hoki dari kami

Texas Poker Jackpot Winner

TOP SUPER ROYAL FLUSH
No.TanggalNamaPriceWin
125/09 05:30B365CA9ASuper Royal flush6,000,000
225/09 00:17N0AH16Super Royal flush3,000,000
324/09 23:12SAF99Super Royal flush1,500,000
424/09 16:34OPPOF9Super Royal flush30,000,000
524/09 14:33ALL19Super Royal flush6,000,000
TOP ROYAL FLUSH
No.TanggalNamaPriceWin
125/09 09:49MADSUPI77Royal flush2,000,000
225/09 08:49CUPLIS08Royal flush5,000,000
325/09 08:46TEMB1KRoyal flush10,000,000
425/09 08:09TATAA2000Royal flush2,000,000
525/09 07:23EXA98Royal flush2,000,000
TOP STRAIGHT FLUSH
No.TanggalNamaPriceWin
125/09 09:48JUBRAY99Straight Flush240,000
225/09 09:48BANK_JOZStraight Flush1,200,000
325/09 09:46ASGTER19Straight Flush1,200,000
425/09 09:45NAING02Straight Flush240,000
525/09 09:44KARTUBUSUKStraight Flush60,000
LATEST JACKPOT
No.TanggalNamaPriceWin
125/09 09:50LOBOO76Full House2,000
225/09 09:50CECE_HOKYFull House1,000
325/09 09:50E2FOX2IS0VFull House5,000
425/09 09:50IDK883425Full House1,000
525/09 09:50CUBO31Full House5,000
625/09 09:50DIAN779Full House2,000
725/09 09:50XAO9YB5OWHFull House5,000
825/09 09:50N4NJOEHFull House5,000
925/09 09:50TAMPAN979Four Of A Kind250,000
1025/09 09:50C0376017Full House1,000
1125/09 09:50ONCOOM059Full House2,000
1225/09 09:50MINI0NF44KFull House10,000
1325/09 09:50SEMAR167Full House2,000
1425/09 09:50A1BF0FD7Full House1,000
1525/09 09:50BLEKOKJUGAFull House2,000
1625/09 09:50BOBI990Full House2,000
1725/09 09:50NAMULIFull House2,000
1825/09 09:50QHAMBA2Full House2,000
1925/09 09:50ONASELUFull House1,000
2025/09 09:50KITUK54Full House2,000
2125/09 09:50MORE23Full House5,000
2225/09 09:50HUMIDI11Full House2,000
2325/09 09:50VIRZA11Full House2,000
2425/09 09:50LAKMANDOK9Full House5,000
2525/09 09:50E5758J2Y2Full House10,000
2625/09 09:50HUSNA_01Full House1,000
2725/09 09:50B455D6D8Full House5,000
2825/09 09:50N4NJOEHFull House5,000
2925/09 09:50PASTIMENNGFull House5,000
3025/09 09:50NATHAN67Full House1,000
3125/09 09:50KUTUK88Full House2,000
3225/09 09:50M_O_CFull House10,000
3325/09 09:50B8DWTOUY58Full House5,000
3425/09 09:50AR1DAFull House1,000
3525/09 09:50RUDI_DOANGFull House2,000
3625/09 09:50FIDZ83Full House2,000
3725/09 09:50A72C6F7DFull House2,000
3825/09 09:50IDK899609Full House1,000
3925/09 09:50HEJOOO_77Full House5,000
4025/09 09:49ROSI11Full House10,000
4125/09 09:49YANKIESFull House5,000
4225/09 09:49ADITUNAFXFull House2,000
4325/09 09:49RONYKAMARRFull House1,000
4425/09 09:49PEDUT11Full House1,000
4525/09 09:49U9KMR09GJGFull House10,000
4625/09 09:49KLM044Full House10,000
4725/09 09:49CACIGO88Full House2,000
4825/09 09:49NASIVFull House2,000
4925/09 09:49HOKKY_88Full House2,000
5025/09 09:49BOY7474Full House2,000

Domino Multi Jackpot System

Ikutilah global jackpot yang tersedia di system kami, dengan system jackpot terbaru dan pertama di indonesia, anda dapat membeli jackpot dengan harga 100 rupiah saja dan menangkan hadiahnya hingga puluhan juta rupiah.

Jackpot bukanlah suatu keharusan untuk dibeli, namun kami memberikan suatu fitur tambahan untuk member tercinta dari www.asiapokerku.info.

Terdapat tiga pilihan harga jackpot yang bisa anda beli yaitu :100,500 dan 1000 rupiah.

Hadiah dari Multi jackpot system www.asiapokerku.info

  1. Murni Kecil x 50 harga jackpot yang anda beli.
      (contoh:anda membeli 1000 maka:1000 X 50 = 50.000)
  2. Murni Besar x 50 harga jackpot yang anda beli
      (contoh:anda membeli 1000 maka:1000 X 50 = 50.000)
  3. BALAK x 100 harga jackpot yang anda beli
      (contoh:anda membeli 1000 maka:1000 X 100 = 100.000)
  4. ENAM DEWA x 6666 harga jackpot yang anda beli
      (contoh:anda membeli 1000 maka:1000 X 6666 = 6.666.000)

Demikian adalah penjelasan dari Multi Jackpot www.asiapokerku.info terima kasih dan selamat bermain salam hoki dari kami

Domino Jackpot Winner

TOP ENAM DEWA
No.TanggalNamaPriceWin
125/09 09:13YOUWIN1murni enam6,666,000
225/09 07:33REJEKIUYEmurni enam6,666,000
325/09 07:28B55EK757murni enam666,600
425/09 06:42ATIKmurni enam666,600
525/09 03:00TEMPUYAK90murni enam3,333,000
TOP BALAK
No.TanggalNamaPriceWin
125/09 09:50XONOX77balak100,000
225/09 09:45SEMA006balak10,000
325/09 09:43OMOY95balak10,000
425/09 09:39PREMAN_XXXbalak100,000
525/09 09:35SILUMAN73balak10,000
LATEST JACKPOT
No.TanggalNamaPriceWin
125/09 09:50XONOX77balak100,000
225/09 09:50AKI60AJ4Smurni kecil25,000
325/09 09:50ABADON123murni besar50,000
425/09 09:49BLUEDEVIL8murni kecil50,000
525/09 09:47XONOX77murni besar50,000
625/09 09:47PANTETO93murni kecil50,000
725/09 09:47RISKE46murni besar50,000
825/09 09:47VIN0_6666murni besar50,000
925/09 09:45SEMA006balak10,000
1025/09 09:45SUHUTNIHUTmurni kecil5,000
1125/09 09:45EYHENK03lucky9910,000
1225/09 09:45ANGLENGmurni kecil5,000
1325/09 09:43OMOY95balak10,000
1425/09 09:41BOZONG20murni kecil50,000
1525/09 09:41DONGAH92murni besar50,000
1625/09 09:41DUYAmurni besar25,000
1725/09 09:41ALFIAZA77murni kecil25,000
1825/09 09:41BOZONG20murni kecil50,000
1925/09 09:40BENDROmurni kecil5,000
2025/09 09:39PREMAN_XXXbalak100,000
2125/09 09:39FADLYFEBmurni besar50,000
2225/09 09:39KULU3murni besar25,000
2325/09 09:39HAMPURA11murni kecil50,000
2425/09 09:39KECEL11murni kecil50,000
2525/09 09:38PANTETO93murni besar50,000
2625/09 09:37NAZQQ99murni kecil50,000
2725/09 09:37FFLLSS99murni besar50,000
2825/09 09:37KECEL11murni besar50,000
2925/09 09:35CIPUY123murni besar25,000
3025/09 09:35SILUMAN73balak10,000
3125/09 09:35KIRR66balak100,000
3225/09 09:34KECEL11murni kecil50,000
3325/09 09:33TALANGBAKUmurni kecil50,000
3425/09 09:33EXPRES078murni besar50,000
3525/09 09:33SILUMAN73murni besar5,000
3625/09 09:32FADLYFEBmurni besar50,000
3725/09 09:31KALOEmurni kecil50,000
3825/09 09:31IPON69murni besar5,000
3925/09 09:31RIYO15murni kecil50,000
4025/09 09:30QA2D61K49Zlucky9925,000
4125/09 09:29KUNCUUP9murni besar50,000
4225/09 09:28MORATTImurni kecil50,000
4325/09 09:27ARUEL700murni kecil25,000
4425/09 09:26PCK4DEWAJUDImurni kecil25,000
4525/09 09:26VIN0_6666murni besar50,000
4625/09 09:25PRAPAT77murni kecil50,000
4725/09 09:24JABRIK85balak50,000
4825/09 09:24AYU454murni kecil5,000
4925/09 09:24FIRMANPBlucky9950,000
5025/09 09:23TEKNO_IDmurni kecil50,000

Ceme Multi Jackpot System

Jackpot dilihat dari gabungan kartu pemain dengan kartu bandar. Bandar harus membeli jackpot sebanyak jumlah player yang sedang duduk. Sebagai contoh bila terdapat 3 pemain duduk bermain, dan bandar memutuskan untuk membeli jackpot Rp 1.000, maka pada periode tersebut bandar akan membeli jackpot sebanyak 3xRp1.000 = Rp3.000.

Jackpot bukanlah suatu keharusan untuk dibeli, namun kami memberikan suatu fitur tambahan untuk member tercinta dari www.asiapokerku.info.

Terdapat tiga pilihan harga jackpot yang bisa anda beli yaitu :100,500 dan 1000 rupiah.

Hadiah dari Multi jackpot system www.asiapokerku.info

  1. Murni Kecil x 50 harga jackpot yang anda beli.
      (contoh:anda membeli 1000 maka:1000 X 50 = 50.000)
  2. Murni Besar x 50 harga jackpot yang anda beli
      (contoh:anda membeli 1000 maka:1000 X 50 = 50.000)
  3. BALAK x 200 harga jackpot yang anda beli
      (contoh:anda membeli 1000 maka:1000 X 200 = 200.000)
  4. ENAM DEWA x 6666 harga jackpot yang anda beli
      (contoh:anda membeli 1000 maka:1000 X 6666 = 6.666.000)

Demikian adalah penjelasan dari Multi Jackpot www.asiapokerku.info terima kasih dan selamat bermain salam hoki dari kami

Ceme Jackpot Winner

TOP ENAM DEWA
No.TanggalNamaPriceWin
125/09 09:50CHELBYNE77murni enam6,666,000
225/09 09:50WRZKNI6666murni enam666,600
325/09 09:46ALONG11murni enam6,666,000
425/09 09:36JCKPT6666murni enam6,666,000
525/09 09:32JKJKJK6666murni enam3,333,000
TOP BALAK
No.TanggalNamaPriceWin
125/09 09:50HAM626balak200,000
225/09 09:50UDIN171balak200,000
325/09 09:49YUKMARHOKYbalak100,000
425/09 09:48ULAILAIbalak200,000
525/09 09:48IDANO09balak200,000
LATEST JACKPOT
No.TanggalNamaPriceWin
125/09 09:50KALMAR02murni kecil50,000
225/09 09:50ROMLAH456murni besar50,000
325/09 09:50POKERO1001murni kecil50,000
425/09 09:50DOMINO899murni kecil50,000
525/09 09:50ANDI653murni kecil5,000
625/09 09:50UDIN171murni besar50,000
725/09 09:50HAM626balak200,000
825/09 09:50KAPAKKmurni kecil50,000
925/09 09:50TELO46murni besar5,000
1025/09 09:50CHELBYNE77murni enam6,666,000
1125/09 09:50WRZKNI6666murni enam666,600
1225/09 09:50YONYONZZmurni kecil50,000
1325/09 09:50BERABEmurni kecil25,000
1425/09 09:50PUSING81murni besar50,000
1525/09 09:50LESSYmurni besar50,000
1625/09 09:50UDIN171balak200,000
1725/09 09:49ONCES351murni besar50,000
1825/09 09:49GROOT99murni besar50,000
1925/09 09:49AIT88murni besar5,000
2025/09 09:49HOKYERGHSmurni kecil50,000
2125/09 09:49YUKMARHOKYbalak100,000
2225/09 09:49BOLON123murni kecil50,000
2325/09 09:49P4L9ZD0MYEmurni kecil50,000
2425/09 09:49JULII88murni kecil5,000
2525/09 09:48ULAILAIbalak200,000
2625/09 09:48IDANO09balak200,000
2725/09 09:48PAYTOKmurni kecil50,000
2825/09 09:48ROSMANA9murni kecil50,000
2925/09 09:48HABIBI099murni kecil50,000
3025/09 09:48AABRIKmurni kecil50,000
3125/09 09:48SUNGIKmurni kecil50,000
3225/09 09:47DEWI1234murni kecil50,000
3325/09 09:47KALMAR02balak200,000
3425/09 09:47JOVIIbalak200,000
3525/09 09:47KALMAR02murni besar50,000
3625/09 09:47B4DIJOKERmurni besar25,000
3725/09 09:47ADIT1705murni besar25,000
3825/09 09:47YONYONZZbalak200,000
3925/09 09:47MASTERBATbalak200,000
4025/09 09:47ABARBELmurni besar50,000
4125/09 09:47PENGHULU55murni kecil25,000
4225/09 09:47AABRIKmurni kecil50,000
4325/09 09:47SUNGIKmurni kecil50,000
4425/09 09:46LESSYbalak200,000
4525/09 09:46RYONbalak100,000
4625/09 09:46DIRA1murni kecil50,000
4725/09 09:46ARSEN98murni kecil50,000
4825/09 09:46ZOENK21murni besar25,000
4925/09 09:46YONYONZZmurni besar50,000
5025/09 09:46ANDYCO88murni besar25,000